Location: Budkovice
(49.7623°N, 15.1678°E)
Time: 11:31:40
(UTC+00:00)

Daily predictions for brighter satellites

Satellite Brightness Start Highest point End
(mag) Time Altitude Azimuth Time Altitude Azimuth Time Altitude Azimuth
USA 229 DEB 4.0 15:22:57 10° NW 15:30:08 65° NE 15:37:49 10° ESE
USA 229 4.0 15:23:03 10° NW 15:30:14 65° NE 15:37:54 10° ESE
Cosmos 1937 Rocket 4.2 15:28:45 10° N 15:33:35 33° NE 15:38:23 10° ESE
Cosmos 1939 Rocket 3.5 15:30:27 10° SE 15:34:12 35° ENE 15:37:55 10° N
ATLAS 2AS CENTAUR R/B 3.9 15:31:03 10° W 15:38:11 37° NNW 15:45:04 10° NE
Cosmos 2082 Rocket 3.9 15:36:06 10° SE 15:38:56 14° E 15:41:45 10° ENE
USA 307 3.2 15:36:36 10° W 15:40:51 58° NNW 15:45:06 10° ENE
Cosmos 990 Rocket 4.0 15:37:20 10° NNW 15:42:31 62° ENE 15:47:38 10° SE
NOAA 6 4.3 15:38:08 10° SE 15:43:03 46° ENE 15:47:56 10° N
SeaSat 1 3.8 15:41:23 10° NNE 15:45:52 35° NW 15:50:18 10° WSW
Cosmos 1408 Rocket 3.5 15:42:03 10° N 15:46:25 79° E 15:50:48 10° SSE
CORIOLIS 4.4 15:41:37 10° SE 15:46:45 46° ENE 15:51:56 10° N
NOSS 2-1 (C) 3.9 15:43:47 10° WSW 15:46:50 38° NW 15:50:05 10° NNE
SL-16 R/B 4.4 15:48:20 10° NW 15:50:38 12° NNW 15:52:56 10° N
Iridium 2 4.3 15:48:33 10° NNW 15:52:15 59° W 15:55:56 10° S
Meteor PRIRODA 3.6 15:49:28 10° SSE 15:53:06 87° ENE 15:56:45 10° NNW
NOSS 3-1 (A) 4.1 15:46:24 10° NW 15:53:44 85° NE 16:02:26 10° SE
Cosmos 1602 4.4 15:50:23 10° N 15:53:53 32° ENE 15:57:21 10° SE
USA 234 3.3 15:47:29 10° ESE 15:54:03 88° SSW 16:00:38 10° WNW
Cosmos 1743 Rocket 3.6 15:49:48 10° N 15:54:04 52° ENE 15:58:17 10° SSE
Okean O Rocket 3.0 15:51:03 10° ESE 15:54:06 18° ENE 15:57:11 10° NNE
USA 276 3.5 15:52:09 10° W 15:55:05 38° SSW 15:58:01 10° SE
ATLAS CENTAUR R/B 2.9 15:51:34 10° W 15:55:21 30° NW 15:59:24 10° NNE
COSMOS 2406 4.1 15:50:56 10° SSE 15:55:54 31° ESE 16:00:51 10° NE
NOSS 2-1 (D) 4.2 15:53:19 10° WSW 15:56:16 32° NW 15:59:28 10° NNE
COSMOS 2455 4.0 15:51:51 10° SSE 15:56:28 23° ESE 16:00:45 11° ENE
NOAA 12 4.1 15:51:48 10° SSE 15:57:08 86° ENE 16:02:29 10° NNW
NOSS 2-2 (D) 4.4 15:55:47 10° NW 16:00:27 50° NE 16:06:52 10° ESE
Cosmos 1782 4.0 15:57:47 10° SE 16:00:55 22° E 16:04:02 10° NE
NOSS 2-2 (E) 4.3 15:56:10 10° NW 16:01:03 59° NE 16:07:52 10° ESE
Cosmos 1833 Rocket 3.1 15:57:24 10° S 16:02:40 43° ESE 16:07:57 10° NE
USA 308 3.3 15:59:10 10° W 16:03:21 51° N 16:06:49 14° ENE
ARGOS 4.0 15:59:20 10° ESE 16:03:49 27° ENE 16:08:17 10° N
Spot 1 4.3 15:59:51 10° NNE 16:04:32 86° ESE 16:09:27 10° SSW
Cosmos 1340 Rocket 2.9 16:05:44 10° NNW 16:09:49 83° W 16:13:54 10° S
CZ-4C R/B 4.4 16:06:20 10° N 16:10:06 44° WNW 16:13:39 10° SW
SJ 16-02 3.9 16:06:39 10° NW 16:10:15 25° W 16:13:49 10° SSW
Cosmos 1464 Rocket 4.3 16:04:10 10° SSW 16:10:32 78° W 16:16:58 10° N
PAYLOAD B 4.4 16:07:35 10° SE 16:13:00 53° ENE 16:18:27 10° N
Radarsat 4.5 16:09:16 10° SSE 16:14:26 73° ENE 16:19:38 10° NNW
ISS -3.8 16:11:08 10° WNW 16:14:33 78° NNE 16:17:10 16° E
Cosmos 1606 3.8 16:13:38 10° SSW 16:17:15 44° WNW 16:20:55 10° N
CZ-2D R/B 3.5 16:13:35 10° SE 16:17:15 45° ENE 16:20:56 10° N
Nadezhda 4 Rocket 4.3 16:11:09 10° NNW 16:17:29 77° W 16:23:47 10° S
Lacrosse 5 rocket 2.1 16:15:13 10° NW 16:18:44 33° NNE 16:20:54 19° ENE
CZ-4B R/B 3.5 16:15:11 10° SE 16:20:15 42° ENE 16:25:16 10° N
Cosmos 2360 4.2 16:14:56 10° NNW 16:20:43 82° ENE 16:26:27 10° SSE
CZ-4 R/B 3.6 16:23:49 11° NNE 16:23:49 11° NNE 16:23:59 10° NNE
Meteor 1-20 Rocket 4.3 16:15:59 10° NNW 16:21:51 89° ENE 16:27:42 10° S
CZ-2C R/B 3.4 16:17:59 10° NE 16:22:29 28° E 16:26:54 10° SSE
Cosmos 1500 Rocket 3.8 16:18:31 10° NNW 16:22:59 76° W 16:27:23 10° S
CZ-4C R/B 3.0 16:17:31 10° NW 16:24:15 56° NE 16:32:17 10° ESE
Cosmos 540 Rocket 3.8 16:19:36 10° S 16:24:26 45° ESE 16:28:34 14° NE
Cosmos 1818 4.3 16:19:55 10° NNW 16:24:55 34° NE 16:28:21 18° E
GEOS 3 Rocket 4.2 16:21:01 13° E 16:25:11 38° NE 16:29:58 10° NNW
CZ-4B R/B 4.2 16:23:39 10° S 16:27:31 42° W 16:31:14 10° NNW
Cosmos 1500 3.3 16:24:57 10° N 16:28:36 48° ENE 16:32:13 10° SSE
SMAP 3.3 16:24:30 10° S 16:29:09 74° WSW 16:33:50 10° NNW
USA 305 3.4 16:26:34 10° WNW 16:30:40 47° N 16:32:56 24° ENE
Cosmos 44 Rocket 4.1 16:26:18 10° NNW 16:30:47 32° NE 16:33:01 22° E
CZ-2C R/B 4.2 16:26:43 10° S 16:31:24 43° W 16:35:58 10° NNW
MOS 1-B 4.3 16:26:19 10° SSE 16:32:02 69° ENE 16:37:49 10° NNW
Cosmos 1092 Rocket 4.0 16:25:53 10° N 16:32:17 86° E 16:38:37 10° S
Cosmos 468 Rocket 3.9 16:28:58 10° SSW 16:34:08 85° ESE 16:39:17 10° NNE
Cosmos 1898 Rocket 3.8 16:29:00 10° NNW 16:34:16 70° WSW 16:39:26 10° SSE
Cosmos 1805 Rocket 3.4 16:30:12 10° N 16:34:34 86° ENE 16:38:54 10° S
Sich 1 2.9 16:30:57 10° N 16:35:15 70° E 16:39:32 10° SSE
Cosmos 1428 Rocket 4.4 16:30:52 10° N 16:37:01 82° E 16:43:11 10° SSE
Cosmos 1933 3.2 16:33:09 10° S 16:37:12 80° E 16:41:15 10° NNE
Cosmos 2360 Rocket 3.7 16:36:19 10° N 16:40:01 17° NE 16:40:27 17° NE
Cosmos 2221 4.1 16:36:13 10° SW 16:40:10 36° WNW 16:44:11 10° N
PSLV R/B 3.7 16:38:47 10° SSE 16:42:28 82° WSW 16:46:13 10° NNW
deb Chang Zheng 4 3.4 16:47:53 10° SSE 16:52:09 66° ENE 16:56:27 10° N
H-2A R/B 2.0 16:49:56 10° SSE 16:55:07 84° WSW 17:00:12 10° NNW
Meteor 1-14 Rocket 4.2 16:50:41 10° N 16:56:29 70° ENE 17:02:22 10° SSE
Meteor 2-16 Rocket 4.4 16:50:30 10° N 16:56:36 67° ENE 17:02:41 10° SSE
NOSS 2-2 (C) 4.4 16:52:53 10° NW 16:57:57 82° SW 17:05:04 10° SE
Cosmos 1666 2.6 16:54:36 10° N 16:58:17 58° ENE 17:01:57 10° SSE
ERBS 3.7 16:56:43 10° WNW 16:59:28 25° NNW 16:59:46 25° N
Cosmos 2322 Rocket 3.1 16:54:51 10° NNW 16:59:46 28° NE 17:00:05 28° NE
YAOGAN 3 4.5 16:56:33 10° SSE 17:00:52 67° ENE 17:05:13 10° N
USA 267 3.4 16:58:13 25° NE 17:02:18 73° NNW 17:08:49 10° WSW
Cosmos 1697 Rocket 3.7 16:57:27 10° NW 17:02:49 47° WSW 17:08:10 10° S
Cosmos 2279 Rocket 3.9 16:56:44 10° S 17:02:50 62° E 17:08:56 10° NNE
USA 306 3.3 16:58:44 10° WNW 17:02:52 47° N 17:03:44 40° NE
SJ-11-01 4.2 16:58:43 10° SSE 17:03:26 73° ENE 17:08:12 10° N
Cosmos 2266 Rocket 4.3 16:59:09 10° N 17:05:14 45° ENE 17:11:20 10° SE
Cosmos 2369 4.1 17:00:36 10° NNW 17:06:18 66° WSW 17:11:57 10° SSE
Cosmos 1980 Rocket 2.3 17:01:09 10° NNW 17:06:52 80° WSW 17:12:29 10° SSE
COSMO-SKYMED 1 2.5 17:05:08 32° NNE 17:07:03 64° ESE 17:11:22 10° S
MOS 1-B Rocket 3.9 17:01:20 10° NNE 17:07:10 81° ESE 17:13:45 10° SSW
Meteor 1-5 Rocket 4.2 17:02:40 10° N 17:08:41 77° ENE 17:14:37 10° SSE
Cosmos 1763 Rocket 4.2 17:04:12 10° SW 17:09:07 50° WNW 17:13:30 13° NNE
SL-24 R/B - RUBIN 2 3.9 17:07:29 10° NW 17:12:01 63° SW 17:15:48 13° SSE
Cosmos 841 Rocket 3.4 17:09:17 10° SSW 17:14:27 89° ESE 17:17:16 28° NNE
Cosmos 1812 2.5 17:12:02 10° S 17:15:53 84° E 17:16:32 60° NNE
Helios 1B 4.4 17:14:17 38° NNE 17:15:55 76° ESE 17:20:14 10° S
SL-16 R/B 2.5 17:11:33 10° NNW 17:16:59 43° NE 17:17:26 42° ENE
Cosmos 1125 Rocket 3.8 17:12:14 10° NNW 17:17:07 43° NE 17:17:07 43° NE
Cosmos 1634 Rocket 4.2 17:12:09 10° SSW 17:18:27 72° W 17:24:49 10° N
Cosmos 1633 Rocket 2.9 17:14:08 10° N 17:18:32 88° E 17:22:54 10° S
YAOGAN 1 3.6 17:22:20 31° N 17:22:20 31° N 17:24:46 10° N
USA 307 3.3 17:17:02 10° WNW 17:21:13 48° N 17:21:20 48° NNE
Cosmos 2082 Rocket 2.1 17:16:24 10° SSW 17:22:05 80° ESE 17:24:28 37° NE
Cosmos 2333 Rocket 3.9 17:21:22 10° N 17:24:11 18° NNE 17:24:11 18° NNE
Okean O Rocket 2.0 17:25:35 10° S 17:30:00 65° WSW 17:34:28 10° NNW
Cosmos 2278 3.9 17:25:05 10° NNW 17:30:48 73° WSW 17:36:28 10° SSE
ATLAS 2AS CENTAUR R/B 4.0 17:24:54 10° NW 17:31:16 28° N 17:33:27 24° NNE
ATLAS CENTAUR R/B 3.9 17:33:16 10° NW 17:35:39 14° N 17:36:14 14° N
Cosmos 1655 Rocket 3.9 17:30:06 10° N 17:36:32 75° E 17:42:54 10° SSE
Cosmos 1151 Rocket 3.2 17:32:32 10° SSW 17:36:50 68° WNW 17:38:08 43° N
Cosmos 1782 4.3 17:33:19 10° SW 17:37:00 35° WNW 17:39:44 16° NNW
COSMOS 2406 3.9 17:34:19 10° SW 17:39:57 53° NW 17:43:05 26° N
COSMOS 2455 2.9 17:35:46 10° SW 17:41:48 77° NW 17:43:55 43° NNE
Meteor 2-15 4.3 17:36:42 10° S 17:42:47 75° E 17:45:42 33° NNE
USA 308 3.7 17:39:32 10° WNW 17:42:51 44° NNW 17:42:51 44° NNW
ARGOS 3.8 17:38:27 10° S 17:43:46 56° W 17:49:06 10° NNW
Cosmos 1470 Rocket 4.4 17:42:05 10° NNW 17:45:00 41° NNW 17:45:00 41° NNW
Cosmos 1833 Rocket 3.8 17:41:23 10° WSW 17:46:39 39° NW 17:49:48 22° N
Cosmos 2180 Rocket 4.5 17:42:54 10° S 17:49:16 83° W 17:55:35 10° N
Meteor 2-6 Rocket 4.2 17:45:16 10° SSW 17:51:03 82° WNW 17:53:25 37° N
Cosmos 1328 Rocket 3.9 17:46:45 10° SSW 17:50:52 66° WSW 17:50:52 66° WSW
ISS -1.6 17:48:07 10° W 17:50:10 26° WSW 17:50:10 26° WSW
Cosmos 2219 Rocket 4.1 17:50:28 10° NNW 17:52:22 17° N 17:52:22 17° N
CZ-4 R/B 4.0 17:59:49 12° NNW 17:59:49 12° NNW 18:00:12 10° NNW
Lacrosse 5 rocket 2.7 17:54:12 10° WNW 17:56:30 34° WNW 17:56:30 34° WNW
Cosmos 2298 Rocket 4.0 17:55:15 10° NNW 18:00:27 80° W 18:00:27 80° W
Cosmos 1570 Rocket 4.1 17:56:41 10° SSW 18:01:55 70° WNW 18:02:05 70° NW
CZ-2C R/B 3.5 17:59:22 18° N 18:03:00 46° WNW 18:07:54 10° SW
GEOS 3 Rocket 4.0 18:02:08 52° S 18:03:04 62° SW 18:08:14 10° NW
ATLAS CENTAUR R/B 3.0 17:56:59 10° WSW 18:03:24 48° NW 18:03:24 48° NW
Meteor 1-11 Rocket 3.7 18:02:19 10° NNW 18:07:51 80° W 18:07:51 80° W
Cosmos 1818 3.8 18:03:26 10° NW 18:08:52 64° SW 18:09:03 63° SW
Meteor 1-10 Rocket 4.2 18:03:19 10° SSW 18:09:02 80° W 18:09:02 80° W
Cosmos 44 Rocket 4.0 18:07:46 10° NW 18:11:46 50° W 18:11:46 50° W
CZ-4C R/B 3.6 18:06:03 10° NW 18:13:04 53° WSW 18:20:10 14° SSE
Cosmos 2360 Rocket 3.6 18:19:34 10° NNW 18:22:14 28° NNW 18:22:14 28° NNW
Cosmos 2322 Rocket 3.5 18:38:38 10° NNW 18:41:55 35° NW 18:41:55 35° NW
USA 267 3.9 18:45:34 47° NNW 18:45:34 47° NNW 18:51:08 10° WNW
SL-16 R/B 3.8 18:55:50 10° NW 18:59:21 31° WNW 18:59:21 31° WNW
Cosmos 2082 Rocket 4.1 19:02:12 10° W 19:06:21 25° NW 19:06:21 25° NW
ATLAS 2AS CENTAUR R/B 4.3 19:17:11 10° NW 19:20:53 28° NNW 19:20:53 28° NNW
